Voltar ao catálogo

DMSP 5D-2 F13 DEB

AtivoSSO
NORAD 40490·DEBRIS·🇺🇸 United States

Lançado Mar 24, 1995 de Vandenberg Space Force Base

Loading…

Próximas Passagens (próximas 24 horas)

TLE

AtualizadoSource: Space-Track

Época: Sep 14, 2026, 04:19 UTC

1 40490U 95015CD  26257.18009003  .00001790  00000-0  13013-2 0  9997
2 40490  98.7778  28.6445 0153875 289.1249  69.3307 13.92060006581018

Acompanhe DMSP 5D-2 F13 DEB em tempo real com AllMySat

Download on the App Store